Printer-friendly version

IAU Minor Planet Center

Minor Planet Center

MPEC 2007-C67 : 2007 CZ49

The following Minor Planet Electronic Circular may be linked-to from your own Web pages, but must not otherwise be redistributed electronically.


Read MPEC 2007-C66 Read MPEC 2007-C68


M.P.E.C. 2007-C67                                Issued 2007 Feb. 14, 21:24 UT

     The Minor Planet Electronic Circulars contain information on unusual
         minor planets and routine data on comets.  They are published
   on behalf of Commission 20 of the International Astronomical Union by the
          Minor Planet Center, Smithsonian Astrophysical Observatory,
                          Cambridge, MA 02138, U.S.A.

             Prepared using the Tamkin Foundation Computer Network

                              MPC@CFA.HARVARD.EDU
          URL http://cfa-www.harvard.edu/iau/mpc.html  ISSN 1523-6714

                                   2007 CZ49

Observations:
     K07C49Z* C2007 02 13.24333 06 18 43.40 +24 42 50.6          19.6   EC067704
     K07C49Z  C2007 02 13.25526 06 18 49.40 +24 41 48.5          19.6   EC067704
     K07C49Z  C2007 02 13.26641 06 18 54.92 +24 40 50.1          19.2   EC067704
     K07C49Z  C2007 02 13.27756 06 19 00.42 +24 39 51.8          19.3   EC067704
     K07C49Z  C2007 02 13.28898 06 19 06.12 +24 38 51.2          19.5   EC067704
     K07C49Z  C2007 02 14.79932 06 31 42.92 +22 29 05.9                 EC067J95
     K07C49Z  C2007 02 14.80182 06 31 44.16 +22 28 52.5                 EC067J95
     K07C49Z  C2007 02 14.80432 06 31 45.28 +22 28 40.1          18.4 R EC067J95
     K07C49Z  C2007 02 14.83993 06 32 01.10 +22 25 41.5          18   R EC067461
     K07C49Z  C2007 02 14.84133 06 32 01.88 +22 25 33.5                 EC067461
     K07C49Z  C2007 02 14.84363 06 32 02.92 +22 25 22.1                 EC067461

Observer details:
461 University of Szeged, Piszkesteto Stn. (Konkoly).  Observer K. Sarneczky.
    0.60-m Schmidt + CCD.
704 Lincoln Laboratory ETS, New Mexico.  Observers M. Bezpalko, D. Torres,
    R. Kracke, G. Spitz, J. Kistler.  Measurers J. Stuart, S. Scruggs.  1.0-m
    f/2.15 reflector + CCD.
J95 Great Shefford.  Observer P. Birtwhistle.  0.40-m f/6.0 Schmidt-Cassegrain
    + CCD.

Orbital elements:
2007 CZ49                                                Earth MOID = 0.0968 AU
Epoch 2007 Apr. 10.0 TT = JDT 2454200.5                 MPC
M  16.26941              (2000.0)            P               Q
n   0.20892017     Peri.  154.11776     -0.39126417     -0.91185463
a   2.8128666      Node   318.59585     +0.80836428     -0.27601789
e   0.6230356      Incl.   10.82680     +0.43984036     -0.30386717
P   4.72           H   20.7           G   0.15           U   8
Residuals in seconds of arc
070213 704  1.2-  0.1-    070213 704  0.0   0.7-    070214 461  1.1-  0.2-
070213 704  0.1+  0.1+    070214 J95  0.4-  0.3+    070214 461  0.6+  1.0-
070213 704  0.1+  0.0     070214 J95  0.4+  0.4-    070214 461  0.0   0.6-
070213 704  0.4-  0.1+    070214 J95  0.4-  0.0

Ephemeris:
2007 CZ49                a,e,i = 2.81, 0.62, 11                  q = 1.0604
Date    TT    R. A. (2000) Decl.     Delta      r     Elong.  Phase     V
2007 02 09    05 40.06   +30 41.1    0.158    1.086   125.6    47.6    18.7
2007 02 19    07 03.18   +16 42.4    0.178    1.121   135.0    38.5    18.7
2007 03 01    08 00.26   +05 44.1    0.225    1.169   138.9    33.9    19.2
2007 03 11    08 39.68   -01 00.5    0.291    1.227   138.9    32.1    19.8
2007 03 21    09 09.10   -04 52.9    0.371    1.293   137.1    31.6    20.5
2007 03 31    09 33.12   -07 07.8    0.465    1.365   134.4    31.5    21.1
2007 04 10    09 54.10   -08 30.6    0.570    1.441   130.9    31.7    21.6

Kyle E. Smalley              (C) Copyright 2007 MPC           M.P.E.C. 2007-C67

Read MPEC 2007-C66 Read MPEC 2007-C68


Our Web policy. Index to the CBAT/MPC/ICQ pages.


Valid HTML 4.01!